Location: Barrio de Buenos Aires
(28.4500°N, 16.2667°W)
Time: 04:23:52
(UTC+00:00)

SL-08 R/B - Pass Details

Date: 24 January 2020
Orbit: 951 x 1018 km, 82.9° (Epoch: 19 February)

Event Time Altitude Azimuth Distance (km) Brightness Sun altitude
Rises 19:37:26 0° 181° (S) 3,650 7.7 -13.3°
Reaches altitude 10° 19:39:54 10° 181° (S) 2,715 7.0 -13.8°
Maximum altitude 19:46:08 83° 94° (E) 1,000 4.5 -15.2°
Drops below altitude 10° 19:52:31 10° 7° (N) 2,774 6.7 -16.5°
Sets 19:55:04 0° 7° (N) 3,735 7.4 -17.1°
